Seattle, WA
on Friday, November 16, 2012

Friday
Previous Day Next Day
Daily Summary
 ActualAverageRecord
Temperature
Mean Temperature °F 45°F  
Max Temperature 49°F 51°F 68°F (1965)
Min Temperature 36°F 40°F 21°F (1955)
Degree Days
Heating Degree Days 22 20  
Month to date heating degree days 270 288  
Since 1 July heating degree days 763 885  
Cooling Degree Days 0 0  
Month to date cooling degree days 0 0  
Year to date cooling degree days 177 189  
Moisture
Dew Point 39°F   
Average Humidity 91    
Maximum Humidity 100    
Minimum Humidity 82    
Precipitation
Precipitation 0.22 in 0.23 in 1.08 in (1988)
Month to date precipitation 2.18 3.42  
Year to date precipitation 35.31 28.99  
Snow
Snow 0.00 in in T in (1994)
Month to date snowfall 0.0  
Since 1 July snowfall 0.0  
Snow Depth 0.00 in   
Wind
Wind Speed 4 mph   
Max Wind Speed 14 mph   
Max Gust Speed 17 mph   
Visibility 6 miles   
Events Fog , Rain   

Key: T is trace of precipitation, MM is missing value
Source: NWS Daily Summary
Time(PST)TemperatureDew PointHumidity Pressure Visibility Wind DirectionWind SpeedGust SpeedPrecipitationEvents Conditions
12:53 AM 39.0°F 37.9°F 96% 29.97 in 0.2 miles Calm Calm - N/A Fog Fog
1:53 AM 37.0°F 36.0°F 96% 29.96 in 0.2 miles South 4.6 mph - N/A Fog Fog
2:53 AM 37.0°F 35.1°F 93% 29.95 in 0.2 miles SSE 3.5 mph - N/A Fog Fog
3:53 AM 37.4°F 37.4°F 100% 29.91 in 0.2 miles Calm Calm - N/A Fog Fog
4:23 AM 39.2°F 37.4°F 93% 29.91 in 0.2 miles Calm Calm - N/A Fog Fog
4:53 AM 39.0°F 37.0°F 93% 29.94 in 0.2 miles South 3.5 mph - N/A Fog Fog
5:53 AM 39.0°F 37.9°F 96% 29.94 in 0.2 miles Calm Calm - 0.00 in Fog , Rain Light Rain
6:31 AM 37.4°F 37.4°F 100% 29.90 in 0.2 miles SE 5.8 mph - 0.00 in Fog Fog
6:53 AM 37.0°F 35.1°F 93% 29.93 in 0.2 miles SSE 5.8 mph - N/A Fog Fog
7:17 AM 37.4°F 35.6°F 93% 29.90 in 4.0 miles SE 4.6 mph - N/A Fog Patches of Fog
7:53 AM 37.0°F 35.1°F 93% 29.94 in 4.0 miles SSE 5.8 mph - N/A Fog Patches of Fog
8:53 AM 37.9°F 36.0°F 93% 29.94 in 10.0 miles SE 4.6 mph - N/A   Mostly Cloudy
9:53 AM 41.0°F 37.0°F 86% 29.95 in 10.0 miles Calm Calm - N/A   Mostly Cloudy
10:53 AM 43.0°F 39.0°F 86% 29.94 in 10.0 miles Calm Calm - N/A   Mostly Cloudy
11:53 AM 43.0°F 39.0°F 86% 29.93 in 10.0 miles WSW 4.6 mph - 0.00 in   Mostly Cloudy
12:53 PM 46.0°F 39.9°F 79% 29.90 in 10.0 miles NNE 3.5 mph - 0.00 in Rain Light Rain
1:53 PM 46.0°F 39.9°F 79% 29.87 in 7.0 miles SE 8.1 mph - 0.01 in Rain Light Rain
2:53 PM 46.0°F 42.1°F 86% 29.86 in 7.0 miles Calm Calm - 0.02 in Rain Light Rain
3:53 PM 46.9°F 41.0°F 80% 29.85 in 5.0 miles East 4.6 mph - 0.06 in Rain Light Rain
4:53 PM 46.9°F 41.0°F 80% 29.81 in 10.0 miles East 3.5 mph - 0.04 in   Overcast
5:53 PM 46.0°F 43.0°F 89% 29.82 in 7.0 miles NW 3.5 mph - 0.03 in Rain Light Rain
6:53 PM 46.0°F 42.1°F 86% 29.79 in 10.0 miles Calm Calm - 0.00 in   Overcast
7:53 PM 46.9°F 42.1°F 83% 29.78 in 10.0 miles SSE 3.5 mph - N/A   Overcast
8:53 PM 46.9°F 42.1°F 83% 29.77 in 10.0 miles South 4.6 mph - 0.00 in   Overcast
9:53 PM 48.0°F 41.0°F 77% 29.75 in 10.0 miles ESE 8.1 mph - 0.02 in Rain Light Rain
10:53 PM 48.9°F 39.9°F 71% 29.75 in 10.0 miles SSE 6.9 mph - 0.00 in Rain Light Rain
11:53 PM 48.9°F 42.1°F 77% 29.73 in 10.0 miles East 6.9 mph - 0.04 in Rain Light Rain
Moon Phase
Nov. 16 Nov. 20 Nov. 28 Dec. 06 Dec. 13
Sunrise:07:16 AM (PST) Moon Rise:10:19 AM (PST)11/16
Sunset:04:31 PM (PST) Moon Set:07:34 PM (PST)11/16

Copyright © 2014 The Weather Underground, Inc.